TimeCST,TemperatureF,Dew PointF,Humidity,Sea Level PressureIn,VisibilityMPH,Wind Direction,Wind SpeedMPH,Gust SpeedMPH,PrecipitationIn,Events,Conditions,WindDirDegrees,DateUTC
12:53 AM,30.9,24.1,76,30.25,10.0,Calm,Calm,-,N/A,,Clear,0,2013-02-20 06:53:00
1:53 AM,30.9,25.0,79,30.23,10.0,Calm,Calm,-,N/A,,Clear,0,2013-02-20 07:53:00
2:53 AM,28.0,23.0,81,30.23,10.0,Calm,Calm,-,N/A,,Clear,0,2013-02-20 08:53:00
3:53 AM,28.9,23.0,78,30.23,10.0,NNW,5.8,-,N/A,,Clear,330,2013-02-20 09:53:00
4:53 AM,30.9,21.9,69,30.26,10.0,North,6.9,-,N/A,,Clear,360,2013-02-20 10:53:00
5:53 AM,28.4,21.2,74,30.24,10.0,North,6.9,-,N/A,,Partly Cloudy,10,2013-02-20 11:53:00
6:53 AM,30.0,19.9,66,30.29,10.0,North,3.5,-,N/A,,Scattered Clouds,10,2013-02-20 12:53:00
7:53 AM,33.1,21.0,61,30.31,10.0,NNE,6.9,-,N/A,,Scattered Clouds,20,2013-02-20 13:53:00
8:53 AM,34.0,19.0,54,30.30,10.0,North,9.2,-,N/A,,Mostly Cloudy,10,2013-02-20 14:53:00
9:53 AM,35.6,19.4,52,30.30,10.0,North,9.2,-,N/A,,Overcast,10,2013-02-20 15:53:00
10:53 AM,37.0,19.0,48,30.30,10.0,North,10.4,-,N/A,,Overcast,10,2013-02-20 16:53:00
11:53 AM,37.0,19.0,48,30.30,10.0,NNW,5.8,-,N/A,,Overcast,330,2013-02-20 17:53:00
12:53 PM,37.0,19.0,48,30.29,10.0,North,8.1,-,N/A,,Overcast,350,2013-02-20 18:53:00
1:53 PM,37.0,18.0,46,30.28,10.0,NNW,3.5,-,N/A,,Overcast,340,2013-02-20 19:53:00
2:53 PM,37.9,19.0,47,30.28,10.0,NNE,4.6,-,N/A,,Overcast,20,2013-02-20 20:53:00
3:53 PM,37.9,19.0,47,30.22,10.0,ENE,9.2,-,N/A,,Overcast,60,2013-02-20 21:53:00
4:53 PM,37.9,19.0,47,30.21,10.0,NNE,10.4,-,N/A,,Overcast,20,2013-02-20 22:53:00
5:53 PM,37.0,21.9,54,30.21,10.0,North,6.9,-,N/A,,Mostly Cloudy,10,2013-02-20 23:53:00
6:53 PM,37.0,19.0,48,30.22,10.0,NNE,8.1,-,N/A,,Overcast,20,2013-02-21 00:53:00
7:53 PM,36.0,21.0,55,30.21,10.0,NNE,9.2,-,0.00,Rain,Light Rain,30,2013-02-21 01:53:00
8:06 PM,35.6,21.2,56,30.19,10.0,NE,10.4,-,0.00,Rain,Light Rain,40,2013-02-21 02:06:00
8:17 PM,35.6,21.2,56,30.20,10.0,NE,8.1,-,0.00,,Overcast,40,2013-02-21 02:17:00
8:19 PM,35.6,21.2,56,30.20,10.0,NE,5.8,-,0.00,,Overcast,50,2013-02-21 02:19:00
8:53 PM,36.0,19.9,52,30.23,10.0,NNE,8.1,-,0.00,,Overcast,20,2013-02-21 02:53:00
9:53 PM,36.0,19.0,50,30.22,10.0,NE,9.2,-,N/A,,Overcast,40,2013-02-21 03:53:00
10:53 PM,36.0,19.9,52,30.20,10.0,NE,9.2,-,N/A,,Overcast,40,2013-02-21 04:53:00
11:53 PM,35.1,21.0,57,30.20,10.0,NE,8.1,-,N/A,,Overcast,40,2013-02-21 05:53:00